Location: Usti nad Labem
(50.6670°N, 14.0330°E)
Time: 23:50:39
(UTC+02:00)

ISS - Visible Passes

Search period start: 19 September 2014 00:00
Search period end: 29 September 2014 00:00
Orbit: 414 x 417 km, 51.6° (Epoch: 19 September)

Date Brightness Start Highest point End Pass type
(mag) Time Alt. Az. Time Alt. Az. Time Alt. Az.
19 Sep -0.8 03:57:46 18° ESE 03:57:46 18° ESE 03:59:02 10° E visible
19 Sep -3.3 05:30:39 22° WSW 05:32:39 84° SSE 05:36:00 10° ENE visible
20 Sep -3.3 04:43:48 66° SSE 04:43:52 66° SSE 04:47:11 10° ENE visible
21 Sep -0.9 03:56:56 22° E 03:56:56 22° E 03:58:18 10° E visible
21 Sep -3.2 05:29:48 23° W 05:31:44 75° N 05:35:05 10° E visible
22 Sep -3.3 04:42:53 84° NNE 04:42:53 84° NNE 04:46:11 10° ENE visible
22 Sep -3.2 06:16:18 10° W 06:19:39 80° N 06:22:59 10° E visible
23 Sep -0.8 03:55:56 22° ENE 03:55:56 22° ENE 03:57:15 10° ENE visible
23 Sep -3.2 05:28:48 24° WNW 05:30:42 74° N 05:34:02 10° E visible
24 Sep -3.1 04:41:51 71° NNE 04:41:51 71° NNE 04:45:03 10° E visible
24 Sep -3.2 06:15:09 10° WNW 06:18:29 73° SSW 06:21:48 10° ESE visible
25 Sep -0.6 03:54:54 20° ENE 03:54:54 20° ENE 03:56:02 10° E visible
25 Sep -3.3 05:27:46 27° WNW 05:29:30 90° NE 05:32:50 10° ESE visible
26 Sep -2.9 04:40:51 65° ENE 04:40:51 65° ENE 04:43:47 10° E visible
26 Sep -2.7 06:13:52 10° W 06:17:03 42° SSW 06:20:13 10° SE visible
27 Sep -0.4 03:53:58 16° E 03:53:58 16° E 03:54:41 10° E visible
27 Sep -3.2 05:26:50 34° W 05:28:03 59° SSW 05:31:20 10° ESE visible
28 Sep -2.2 04:40:01 41° ESE 04:40:01 41° ESE 04:42:19 10° ESE visible
28 Sep -1.8 06:12:54 11° W 06:15:20 22° SW 06:17:59 10° SSE visible
